AB8KN-2 Weather Reports


Display with metric or nautical units.
time (UTC)temp
F
wind
direction
speed
MPH
gust
MPH
rain 1hr
in
rain 24hr
in
rain mn
in
humidity
%
barometer
mb
20260905093017 71 16 2.0 13.0 0.44 0.68 0.45 96 1015.4
20260905092017 71 8 0.0 5.0 0.27 0.51 0.28 96 1014.3
20260905091037 71 103 0.0 1.0 0.27 0.51 0.28 96 1013.7
20260905090017 71 234 1.0 3.0 0.27 0.51 0.28 95 1013.9
20260905085017 71 0.0 0.0 0.27 0.49 0.27 94 1013.3
20260905084017 72 16 1.0 5.0 0.18 0.41 0.18 92 1013.7
20260905083018 73 290 2.0 10.0 0.01 0.24 0.01 92 1014.6
20260905082016 74 330 1.0 5.0 0.01 0.24 0.01 94 1014.2
20260905081015 74 352 0.0 2.0 0.00 0.23 0.00 94 1014.0
20260905080018 74 297 1.0 5.0 0.00 0.23 0.00 94 1014.0
20260905075038 74 40 0.0 2.0 0.00 0.23 0.00 94 1014.0
20260905074015 74 27 0.0 1.0 0.00 0.23 0.00 95 1013.6
20260905073015 73 91 1.0 3.0 0.00 0.23 0.00 95 1013.0
20260905072016 73 313 1.0 3.0 0.00 0.23 0.00 96 1013.7
20260905071016 73 69 0.0 1.0 0.00 0.23 0.00 96 1013.7
20260905070016 73 112 0.0 1.0 0.00 0.23 0.00 96 1013.7
20260905065016 73 107 0.0 1.0 0.00 0.23 0.00 96 1013.6
20260905064016 73 96 0.0 1.0 0.00 0.23 0.00 96 1013.6
20260905063016 73 91 0.0 1.0 0.00 0.23 0.00 96 1013.8
20260905062017 73 111 0.0 1.0 0.00 0.23 0.00 96 1013.7
20260905061017 73 121 0.0 1.0 0.00 0.23 0.00 96 1013.9
20260905060017 72 0.0 0.0 0.00 0.23 0.00 96 1014.0
20260905055017 72 157 0.0 0.0 0.00 0.23 0.00 96 1014.2
20260905054017 72 92 0.0 2.0 0.00 0.23 0.00 95 1014.2
20260905053017 72 74 0.0 1.0 0.00 0.23 0.00 95 1014.3
20260905052018 72 89 0.0 1.0 0.00 0.23 0.00 95 1014.5
20260905051018 72 209 0.0 3.0 0.00 0.23 0.00 95 1014.5
20260905050018 72 0.0 0.0 0.00 0.23 0.00 95 1014.5
20260905045018 72 68 0.0 0.0 0.00 0.23 0.00 95 1014.7
20260905044016 72 103 0.0 1.0 0.00 0.23 0.00 95 1014.8
20260905043017 72 64 0.0 1.0 0.00 0.23 0.00 95 1014.8
20260905042016 73 116 0.0 0.0 0.00 0.23 0.00 95 1014.9
20260905041016 73 77 0.0 0.0 0.00 0.23 0.00 95 1014.9
20260905040017 73 0.0 0.0 0.00 0.23 0.00 94 1014.9
20260905035017 73 0.0 0.0 0.00 0.23 0.23 94 1014.9
20260905034037 73 50 0.0 1.0 0.00 0.23 0.23 94 1014.9
20260905033017 73 0.0 0.0 0.00 0.23 0.23 94 1015.0
20260905032017 73 0.0 0.0 0.00 0.23 0.23 94 1015.0
20260905031017 73 0.0 0.0 0.00 0.23 0.23 94 1015.1
20260905030018 73 291 0.0 1.0 0.00 0.23 0.23 93 1015.0
20260905025018 73 59 0.0 0.0 0.00 0.23 0.23 93 1015.0
20260905024018 73 56 0.0 1.0 0.00 0.23 0.23 93 1015.1
20260905023015 74 91 0.0 1.0 0.00 0.23 0.23 93 1015.1
20260905022015 74 75 0.0 0.0 0.00 0.23 0.23 92 1015.0
20260905021015 74 0.0 0.0 0.00 0.23 0.23 92 1015.0
20260905020016 74 51 0.0 0.0 0.00 0.23 0.23 91 1015.0
20260905015036 74 45 0.0 1.0 0.00 0.23 0.23 91 1014.9
20260905014016 75 0.0 0.0 0.00 0.23 0.23 90 1014.8
20260905013016 75 359 0.0 1.0 0.00 0.23 0.23 89 1014.9
20260905012016 75 42 0.0 0.0 0.00 0.23 0.23 89 1014.8
20260905011016 75 0.0 0.0 0.00 0.23 0.23 88 1014.7
20260905010017 76 58 0.0 1.0 0.00 0.23 0.23 87 1014.7
20260905005017 76 284 0.0 2.0 0.00 0.23 0.23 87 1014.7
20260905004017 77 0.0 0.0 0.00 0.23 0.23 86 1014.5
20260905003017 77 0.0 0.0 0.00 0.23 0.23 84 1014.3
20260905002018 78 0.0 0.0 0.00 0.23 0.23 83 1014.3
20260905001017 79 0.0 0.0 0.00 0.23 0.23 81 1014.3
20260905000018 79 0.0 0.0 0.00 0.23 0.23 80 1014.2
20260904235038 80 0.0 0.0 0.00 0.23 0.23 79 1014.2
20260904234038 81 0.0 0.0 0.00 0.23 0.23 77 1014.3
20260904233015 81 0.0 0.0 0.00 0.23 0.23 76 1014.2
20260904232015 81 0.0 0.0 0.00 0.23 0.23 75 1014.2
20260904231015 82 64 0.0 2.0 0.00 0.23 0.23 74 1014.3
20260904230036 82 296 0.0 2.0 0.00 0.23 0.23 73 1014.4
20260904225016 82 229 0.0 1.0 0.00 0.23 0.23 74 1014.3
20260904224016 82 199 1.0 3.0 0.00 0.23 0.23 72 1014.3
20260904223016 82 242 1.0 3.0 0.00 0.23 0.23 73 1014.5
20260904222016 81 74 0.0 2.0 0.00 0.23 0.23 75 1014.3
20260904221016 81 58 0.0 1.0 0.00 0.23 0.23 75 1014.3
20260904220017 80 220 0.0 3.0 0.00 0.23 0.23 76 1013.9
20260904215037 80 180 0.0 1.0 0.00 0.23 0.23 76 1013.6
20260904214017 80 241 0.0 3.0 0.00 0.23 0.23 77 1013.3
20260904213017 80 84 1.0 4.0 0.00 0.23 0.23 77 1012.6
20260904212017 80 216 1.0 5.0 0.00 0.23 0.23 77 1012.2
20260904211018 80 234 0.0 2.0 0.00 0.23 0.23 77 1012.9
20260904210018 80 146 0.0 1.0 0.00 0.23 0.23 76 1013.8
20260904205018 81 34 0.0 1.0 0.00 0.23 0.23 75 1014.2
20260904204018 81 34 0.0 0.0 0.00 0.23 0.23 73 1014.6
20260904203015 82 196 0.0 1.0 0.00 0.23 0.23 72 1014.9
20260904202015 82 274 0.0 2.0 0.00 0.23 0.23 73 1015.4
20260904201015 82 239 0.0 2.0 0.00 0.23 0.23 72 1015.3
20260904200056 82 85 0.0 3.0 0.00 0.23 0.23 71 1015.6
20260904195016 84 89 1.0 4.0 0.00 0.23 0.23 70 1015.7
20260904194016 84 62 1.0 5.0 0.00 0.23 0.23 69 1015.8
20260904193016 83 29 1.0 5.0 0.00 0.23 0.23 71 1016.0
20260904192016 82 273 1.0 4.0 0.00 0.23 0.23 74 1016.0
20260904191017 83 29 2.0 5.0 0.00 0.23 0.23 75 1016.0
20260904190017 84 68 1.0 4.0 0.00 0.23 0.23 75 1016.1
20260904185017 83 308 1.0 5.0 0.00 0.23 0.23 76 1016.5
20260904184017 83 301 1.0 6.0 0.00 0.23 0.23 80 1016.6
20260904183017 82 305 1.0 4.0 0.00 0.23 0.23 83 1016.5
20260904182018 81 278 1.0 4.0 0.00 0.23 0.23 86 1016.4
20260904181038 80 306 0.0 4.0 0.00 0.23 0.23 88 1016.7
20260904180018 79 285 1.0 5.0 0.00 0.23 0.23 89 1016.5
20260904175018 78 284 0.0 2.0 0.00 0.23 0.23 92 1016.6
20260904174057 77 283 0.0 2.0 0.02 0.23 0.23 94 1016.7
20260904173015 77 282 1.0 2.0 0.06 0.23 0.23 94 1016.5
20260904172015 77 127 0.0 1.0 0.06 0.23 0.23 94 1016.6
20260904171015 77 77 1.0 2.0 0.06 0.23 0.23 94 1016.9
20260904170016 78 0.0 0.0 0.06 0.23 0.23 94 1017.1
20260904165038 78 252 0.0 2.0 0.13 0.23 0.23 94 1016.7
20260904164016 78 337 0.0 3.0 0.11 0.21 0.21 94 1017.4
20260904163016 79 279 1.0 3.0 0.07 0.17 0.17 93 1017.5
20260904162017 79 203 0.0 2.0 0.13 0.17 0.17 93 1017.4
20260904161017 79 279 1.0 3.0 0.13 0.17 0.17 93 1017.1
20260904160017 79 98 0.0 1.0 0.14 0.16 0.16 90 1017.0
20260904155017 80 272 0.0 2.0 0.08 0.10 0.10 89 1017.3
20260904154017 80 282 1.0 3.0 0.10 0.10 0.10 86 1017.2
20260904153037 81 287 0.0 2.0 0.10 0.10 0.10 85 1017.1
20260904152017 83 273 1.0 3.0 0.04 0.04 0.04 81 1016.8
20260904151017 83 263 0.0 2.0 0.03 0.03 0.03 80 1016.7
20260904150018 83 288 0.0 2.0 0.02 0.02 0.02 80 1016.7
20260904145018 84 267 0.0 2.0 0.02 0.02 0.02 75 1016.2
20260904144035 85 285 2.0 8.0 0.00 0.00 0.00 71 1016.4
20260904143015 86 273 1.0 5.0 0.00 0.00 0.00 71 1016.5
20260904142036 86 300 1.0 2.0 0.00 0.00 0.00 70 1016.3
20260904141016 85 280 0.0 2.0 0.00 0.00 0.00 70 1016.0
20260904140016 85 235 1.0 3.0 0.00 0.00 0.00 71 1015.9
20260904135016 84 196 0.0 2.0 0.00 0.00 0.00 72 1016.0
20260904134057 82 227 0.0 2.0 0.00 0.00 0.00 75 1016.1
20260904133016 81 202 0.0 3.0 0.00 0.00 0.00 77 1016.1
20260904132016 81 96 0.0 1.0 0.00 0.00 0.00 79 1016.2
20260904131017 81 71 1.0 3.0 0.00 0.00 0.00 79 1016.3
20260904130016 80 46 0.0 2.0 0.00 0.00 0.00 80 1016.4
20260904125017 80 76 0.0 2.0 0.00 0.00 0.00 82 1016.4
20260904124017 78 57 0.0 1.0 0.00 0.00 0.00 83 1016.5
20260904123017 76 91 0.0 2.0 0.00 0.00 0.00 87 1016.6
20260904122017 75 114 0.0 0.0 0.00 0.00 0.00 91 1016.5
20260904121017 74 69 0.0 2.0 0.00 0.00 0.00 92 1016.6
20260904120018 74 82 0.0 2.0 0.00 0.00 0.00 93 1016.4
20260904115018 73 99 0.0 2.0 0.00 0.00 0.00 95 1016.2
20260904114018 72 111 0.0 1.0 0.00 0.00 0.00 95 1016.0
20260904113015 72 197 0.0 1.0 0.00 0.00 0.00 95 1015.8
20260904112015 72 81 0.0 1.0 0.00 0.00 0.00 95 1015.8
20260904111015 72 0.0 0.0 0.00 0.00 0.00 95 1015.8
20260904110016 72 0.0 0.0 0.00 0.00 0.00 95 1015.6
20260904105036 72 117 0.0 0.0 0.00 0.00 0.00 95 1015.5
20260904104016 72 0.0 0.0 0.00 0.00 0.00 94 1015.4
20260904103016 72 124 0.0 1.0 0.00 0.00 0.00 94 1015.3
20260904102016 72 108 0.0 0.0 0.00 0.00 0.00 94 1015.2
20260904101017 72 0.0 0.0 0.00 0.00 0.00 94 1015.1
20260904100016 72 0.0 0.0 0.00 0.00 0.00 94 1015.1
20260904095037 72 104 0.0 1.0 0.00 0.00 0.00 93 1015.2
20260904094017 72 0.0 0.0 0.00 0.00 0.00 93 1015.1